Location: Valley Falls
(35.0169°N, 81.9753°W)
Time: 21:15:31
(UTC+00:00)

N. Korean satellite - Pass Details

Date: 29 November 2022
Orbit: 407 x 442 km, 97.3° (Epoch: 05 February)

Event Time Altitude Azimuth Distance (km) Brightness Sun altitude
Rises 11:22:14 0° 356° (N) 2,523 10.0 -11.0°
Reaches altitude 10° 11:24:35 10° 341° (NNW) 1,637 8.9 -10.5°
Maximum altitude 11:27:23 23° 288° (WNW) 1,047 7.6 -10.0°
Drops below altitude 10° 11:30:10 10° 235° (SW) 1,612 8.9 -9.4°
Sets 11:32:28 0° 220° (SW) 2,472 10.0 -9.0°
